Time,TemperatureF,DewpointF,PressureIn,WindDirection,WindDirectionDegrees,WindSpeedMPH,WindSpeedGustMPH,Humidity,HourlyPrecipIn,Conditions,Clouds,dailyrainin,SoftwareType,DateUTC
2013-08-16 00:12:00,76.1,27.0,31.97,NE,40,3.0,6.0,16,0.00,,,0.00,weatherlink.com 1.10,2013-08-16 06:12:00,
2013-08-16 00:27:00,76.0,27.0,31.97,ENE,66,2.0,7.0,16,0.00,,,0.00,weatherlink.com 1.10,2013-08-16 06:27:00,
2013-08-16 00:42:00,75.1,27.0,31.97,East,89,3.0,6.0,17,0.00,,,0.00,weatherlink.com 1.10,2013-08-16 06:42:00,
2013-08-16 00:57:00,75.1,27.0,31.97,South,169,3.0,4.0,17,0.00,,,0.00,weatherlink.com 1.10,2013-08-16 06:57:00,
2013-08-16 01:12:00,75.4,26.0,31.97,ESE,111,4.0,7.0,16,0.00,,,0.00,weatherlink.com 1.10,2013-08-16 07:12:00,
2013-08-16 01:27:00,74.7,27.0,31.97,SSE,165,2.0,4.0,17,0.00,,,0.00,weatherlink.com 1.10,2013-08-16 07:27:00,
2013-08-16 01:42:00,74.6,27.0,31.97,SSW,213,1.0,3.0,17,0.00,,,0.00,weatherlink.com 1.10,2013-08-16 07:42:00,
2013-08-16 01:57:00,74.4,27.0,31.97,SSE,167,2.0,3.0,17,0.00,,,0.00,weatherlink.com 1.10,2013-08-16 07:57:00,
2013-08-16 02:12:00,74.3,27.0,31.97,SSE,168,2.0,3.0,17,0.00,,,0.00,weatherlink.com 1.10,2013-08-16 08:12:00,
2013-08-16 02:27:00,73.2,28.0,31.97,North,355,0.0,3.0,19,0.00,,,0.00,weatherlink.com 1.10,2013-08-16 08:27:00,
2013-08-16 02:42:00,72.5,29.0,31.97,NNW,338,4.0,5.0,20,0.00,,,0.00,weatherlink.com 1.10,2013-08-16 08:42:00,
2013-08-16 02:57:00,71.7,30.0,31.97,NNW,333,2.0,5.0,21,0.00,,,0.00,weatherlink.com 1.10,2013-08-16 08:57:00,
2013-08-16 03:12:00,71.9,27.0,31.97,NNW,333,0.0,2.0,19,0.00,,,0.00,weatherlink.com 1.10,2013-08-16 09:12:00,
2013-08-16 03:27:00,72.0,29.0,31.97,NNW,333,2.0,3.0,20,0.00,,,0.00,weatherlink.com 1.10,2013-08-16 09:27:00,
2013-08-16 03:42:00,72.1,29.0,31.97,NNW,333,1.0,2.0,20,0.00,,,0.00,weatherlink.com 1.10,2013-08-16 09:42:00,
2013-08-16 03:57:00,71.7,28.0,31.97,NNW,333,0.0,1.0,20,0.00,,,0.00,weatherlink.com 1.10,2013-08-16 09:57:00,
2013-08-16 04:12:00,70.5,29.0,31.97,NW,312,3.0,4.0,21,0.00,,,0.00,weatherlink.com 1.10,2013-08-16 10:12:00,
2013-08-16 04:27:00,69.8,28.0,31.97,NW,312,2.0,2.0,21,0.00,,,0.00,weatherlink.com 1.10,2013-08-16 10:27:00,
2013-08-16 04:43:00,68.3,29.0,31.97,NNW,346,0.0,2.0,23,0.00,,,0.00,weatherlink.com 1.10,2013-08-16 10:43:00,
2013-08-16 04:58:00,66.3,33.0,31.97,NW,306,6.0,10.0,29,0.00,,,0.00,weatherlink.com 1.10,2013-08-16 10:58:00,
2013-08-16 05:13:00,66.0,34.0,31.97,WNW,302,8.0,12.0,30,0.00,,,0.00,weatherlink.com 1.10,2013-08-16 11:13:00,
2013-08-16 05:28:00,65.5,34.0,31.97,NW,304,9.0,12.0,31,0.00,,,0.00,weatherlink.com 1.10,2013-08-16 11:28:00,
2013-08-16 05:43:00,65.2,34.0,31.97,NW,305,10.0,14.0,32,0.00,,,0.00,weatherlink.com 1.10,2013-08-16 11:43:00,
2013-08-16 05:58:00,64.9,36.0,31.97,NW,311,11.0,14.0,34,0.00,,,0.00,weatherlink.com 1.10,2013-08-16 11:58:00,
2013-08-16 06:13:00,65.4,36.0,31.97,NW,323,11.0,13.0,34,0.00,,,0.00,weatherlink.com 1.10,2013-08-16 12:13:00,
2013-08-16 06:28:00,66.1,36.0,31.97,NW,320,10.0,12.0,33,0.00,,,0.00,weatherlink.com 1.10,2013-08-16 12:28:00,
2013-08-16 06:43:00,65.2,36.0,31.97,NW,309,8.0,9.0,34,0.00,,,0.00,weatherlink.com 1.10,2013-08-16 12:43:00,
2013-08-16 06:58:00,65.1,37.0,31.97,WNW,303,11.0,11.0,35,0.00,,,0.00,weatherlink.com 1.10,2013-08-16 12:58:00,
2013-08-16 07:13:00,65.6,37.0,31.97,NW,306,7.0,11.0,35,0.00,,,0.00,weatherlink.com 1.10,2013-08-16 13:13:00,
2013-08-16 07:28:00,65.0,37.0,31.97,WNW,295,6.0,9.0,35,0.00,,,0.00,weatherlink.com 1.10,2013-08-16 13:28:00,
2013-08-16 07:43:00,64.3,36.0,31.97,NW,309,5.0,8.0,35,0.00,,,0.00,weatherlink.com 1.10,2013-08-16 13:43:00,
2013-08-16 07:58:00,63.9,37.0,31.97,WNW,300,8.0,11.0,37,0.00,,,0.00,weatherlink.com 1.10,2013-08-16 13:58:00,
2013-08-16 08:13:00,63.3,37.0,31.97,WNW,302,8.0,12.0,38,0.00,,,0.00,weatherlink.com 1.10,2013-08-16 14:13:00,
2013-08-16 08:28:00,64.2,37.0,31.97,NW,304,6.0,10.0,37,0.00,,,0.00,weatherlink.com 1.10,2013-08-16 14:28:00,
2013-08-16 08:43:00,64.0,37.0,31.97,NW,310,7.0,12.0,37,0.00,,,0.00,weatherlink.com 1.10,2013-08-16 14:43:00,
2013-08-16 08:58:00,63.8,38.0,31.97,WNW,294,5.0,9.0,39,0.00,,,0.00,weatherlink.com 1.10,2013-08-16 14:58:00,
2013-08-16 09:13:00,63.9,38.0,31.97,NW,306,6.0,9.0,39,0.00,,,0.00,weatherlink.com 1.10,2013-08-16 15:13:00,
2013-08-16 09:28:00,64.6,38.0,31.97,NW,310,6.0,11.0,38,0.00,,,0.00,weatherlink.com 1.10,2013-08-16 15:28:00,
2013-08-16 09:44:00,64.9,39.0,31.97,NW,309,3.0,9.0,38,0.00,,,0.00,weatherlink.com 1.10,2013-08-16 15:44:00,
2013-08-16 09:59:00,65.5,39.0,31.97,WNW,289,6.0,9.0,38,0.00,,,0.00,weatherlink.com 1.10,2013-08-16 15:59:00,
2013-08-16 10:14:00,65.3,40.0,31.97,WNW,289,5.0,10.0,40,0.00,,,0.00,weatherlink.com 1.10,2013-08-16 16:14:00,
2013-08-16 10:29:00,65.7,41.0,31.97,WNW,298,7.0,12.0,40,0.00,,,0.00,weatherlink.com 1.10,2013-08-16 16:29:00,
2013-08-16 10:44:00,66.5,41.0,31.97,WNW,303,4.0,11.0,39,0.00,,,0.00,weatherlink.com 1.10,2013-08-16 16:44:00,
2013-08-16 10:59:00,67.2,41.0,31.97,NW,309,4.0,10.0,39,0.00,,,0.00,weatherlink.com 1.10,2013-08-16 16:59:00,
2013-08-16 11:14:00,68.3,41.0,31.97,WNW,289,3.0,8.0,37,0.00,,,0.00,weatherlink.com 1.10,2013-08-16 17:14:00,
2013-08-16 11:29:00,70.1,40.0,31.97,North,350,1.0,9.0,33,0.00,,,0.00,weatherlink.com 1.10,2013-08-16 17:29:00,
2013-08-16 11:44:00,70.3,39.0,31.97,NW,312,3.0,10.0,32,0.00,,,0.00,weatherlink.com 1.10,2013-08-16 17:44:00,
2013-08-16 11:59:00,71.1,40.0,31.97,NW,317,4.0,9.0,33,0.00,,,0.00,weatherlink.com 1.10,2013-08-16 17:59:00,
2013-08-16 12:14:00,71.2,40.0,31.97,West,281,6.0,11.0,32,0.00,,,0.00,weatherlink.com 1.10,2013-08-16 18:14:00,
2013-08-16 12:29:00,72.2,39.0,31.97,WNW,290,6.0,9.0,30,0.00,,,0.00,weatherlink.com 1.10,2013-08-16 18:29:00,
2013-08-16 12:44:00,73.0,40.0,31.97,NNW,336,6.0,9.0,30,0.00,,,0.00,weatherlink.com 1.10,2013-08-16 18:44:00,
2013-08-16 12:59:00,73.7,40.0,31.97,NW,313,2.0,7.0,30,0.00,,,0.00,weatherlink.com 1.10,2013-08-16 18:59:00,
2013-08-16 13:14:00,73.5,40.0,31.97,NW,315,4.0,10.0,30,0.00,,,0.00,weatherlink.com 1.10,2013-08-16 19:14:00,
2013-08-16 13:29:00,72.9,40.0,31.97,West,277,4.0,9.0,31,0.00,,,0.00,weatherlink.com 1.10,2013-08-16 19:29:00,
2013-08-16 13:44:00,73.6,40.0,31.97,WNW,288,6.0,10.0,30,0.00,,,0.00,weatherlink.com 1.10,2013-08-16 19:44:00,
2013-08-16 13:59:00,74.8,41.0,31.97,West,271,3.0,10.0,30,0.00,,,0.00,weatherlink.com 1.10,2013-08-16 19:59:00,
2013-08-16 14:14:00,75.6,41.0,31.97,WSW,256,3.0,11.0,29,0.00,,,0.00,weatherlink.com 1.10,2013-08-16 20:14:00,
2013-08-16 14:29:00,76.6,40.0,31.97,NW,323,1.0,11.0,27,0.00,,,0.00,weatherlink.com 1.10,2013-08-16 20:29:00,
2013-08-16 14:44:00,77.8,41.0,31.97,SW,214,10.0,12.0,27,0.00,,,0.00,weatherlink.com 1.10,2013-08-16 20:44:00,
2013-08-16 14:59:00,78.4,42.0,31.97,SW,230,5.0,13.0,27,0.00,,,0.00,weatherlink.com 1.10,2013-08-16 20:59:00,
2013-08-16 15:14:00,78.8,41.0,31.97,WSW,255,4.0,9.0,26,0.00,,,0.00,weatherlink.com 1.10,2013-08-16 21:14:00,
2013-08-16 15:29:00,78.9,41.0,31.97,WNW,292,4.0,10.0,26,0.00,,,0.00,weatherlink.com 1.10,2013-08-16 21:29:00,
2013-08-16 15:44:00,78.5,40.0,31.97,SW,229,7.0,9.0,25,0.00,,,0.00,weatherlink.com 1.10,2013-08-16 21:44:00,
2013-08-16 15:59:00,78.1,40.0,31.97,SSW,194,5.0,16.0,25,0.00,,,0.00,weatherlink.com 1.10,2013-08-16 21:59:00,
2013-08-16 16:14:00,78.9,40.0,31.97,WNW,284,5.0,8.0,25,0.00,,,0.00,weatherlink.com 1.10,2013-08-16 22:14:00,
2013-08-16 16:29:00,80.0,39.0,31.97,West,266,5.0,10.0,23,0.00,,,0.00,weatherlink.com 1.10,2013-08-16 22:29:00,
2013-08-16 16:44:00,80.4,37.0,31.97,WNW,296,5.0,10.0,21,0.00,,,0.00,weatherlink.com 1.10,2013-08-16 22:44:00,
2013-08-16 16:59:00,80.8,36.0,31.97,WSW,238,8.0,12.0,20,0.00,,,0.00,weatherlink.com 1.10,2013-08-16 22:59:00,
2013-08-16 17:14:00,80.2,36.0,31.97,NW,306,6.0,13.0,20,0.00,,,0.00,weatherlink.com 1.10,2013-08-16 23:14:00,
2013-08-16 17:29:00,80.7,35.0,31.97,WSW,252,8.0,20.0,19,0.00,,,0.00,weatherlink.com 1.10,2013-08-16 23:29:00,
2013-08-16 17:44:00,80.6,33.0,31.97,WNW,289,7.0,17.0,18,0.00,,,0.00,weatherlink.com 1.10,2013-08-16 23:44:00,
2013-08-16 17:59:00,79.9,34.0,31.97,West,281,4.0,18.0,19,0.00,,,0.00,weatherlink.com 1.10,2013-08-16 23:59:00,
2013-08-16 18:15:00,79.9,34.0,31.97,WNW,284,5.0,21.0,19,0.00,,,0.00,weatherlink.com 1.10,2013-08-17 00:15:00,
2013-08-16 18:30:00,79.6,34.0,31.97,West,263,6.0,11.0,19,0.00,,,0.00,weatherlink.com 1.10,2013-08-17 00:30:00,
2013-08-16 18:45:00,79.1,33.0,31.97,West,277,7.0,11.0,19,0.00,,,0.00,weatherlink.com 1.10,2013-08-17 00:45:00,
2013-08-16 19:00:00,78.2,35.0,31.97,WNW,292,6.0,11.0,21,0.00,,,0.00,weatherlink.com 1.10,2013-08-17 01:00:00,
2013-08-16 19:15:00,77.8,36.0,31.97,WNW,294,4.0,13.0,22,0.00,,,0.00,weatherlink.com 1.10,2013-08-17 01:15:00,
2013-08-16 19:30:00,77.5,37.0,31.97,West,281,6.0,9.0,23,0.00,,,0.00,weatherlink.com 1.10,2013-08-17 01:30:00,
2013-08-16 19:45:00,76.0,39.0,31.97,WNW,284,5.0,12.0,26,0.00,,,0.00,weatherlink.com 1.10,2013-08-17 01:45:00,
2013-08-16 20:00:00,75.6,39.0,31.97,WNW,286,7.0,9.0,27,0.00,,,0.00,weatherlink.com 1.10,2013-08-17 02:00:00,
2013-08-16 20:15:00,75.4,37.0,31.97,NW,312,7.0,14.0,25,0.00,,,0.00,weatherlink.com 1.10,2013-08-17 02:15:00,
2013-08-16 20:30:00,74.2,37.0,31.97,NNW,331,10.0,15.0,26,0.00,,,0.00,weatherlink.com 1.10,2013-08-17 02:30:00,
2013-08-16 20:45:00,73.7,37.0,31.97,NW,313,10.0,16.0,26,0.00,,,0.00,weatherlink.com 1.10,2013-08-17 02:45:00,
2013-08-16 21:00:00,73.3,36.0,31.97,NW,313,12.0,16.0,26,0.00,,,0.00,weatherlink.com 1.10,2013-08-17 03:00:00,
2013-08-16 21:15:00,72.4,37.0,31.97,NNW,327,10.0,14.0,28,0.00,,,0.00,weatherlink.com 1.10,2013-08-17 03:15:00,
2013-08-16 21:30:00,72.0,38.0,31.97,WNW,285,9.0,14.0,29,0.00,,,0.00,weatherlink.com 1.10,2013-08-17 03:30:00,
2013-08-16 21:45:00,71.5,38.0,31.97,NW,325,10.0,19.0,30,0.00,,,0.00,weatherlink.com 1.10,2013-08-17 03:45:00,
2013-08-16 22:00:00,71.0,38.0,31.97,NW,305,9.0,17.0,30,0.00,,,0.00,weatherlink.com 1.10,2013-08-17 04:00:00,
2013-08-16 22:15:00,69.7,42.0,31.97,NW,312,10.0,21.0,37,0.00,,,0.00,weatherlink.com 1.10,2013-08-17 04:15:00,
2013-08-16 22:30:00,68.5,44.0,31.97,NW,319,14.0,19.0,42,0.00,,,0.00,weatherlink.com 1.10,2013-08-17 04:30:00,
2013-08-16 22:45:00,67.6,45.0,31.97,NNW,331,14.0,20.0,44,0.00,,,0.00,weatherlink.com 1.10,2013-08-17 04:45:00,
2013-08-16 23:00:00,67.0,45.0,31.97,NW,321,7.0,15.0,46,0.00,,,0.00,weatherlink.com 1.10,2013-08-17 05:00:00,
2013-08-16 23:15:00,66.8,45.0,31.97,NNW,330,12.0,20.0,46,0.00,,,0.00,weatherlink.com 1.10,2013-08-17 05:15:00,
2013-08-16 23:30:00,66.6,46.0,31.97,NW,314,12.0,18.0,47,0.00,,,0.00,weatherlink.com 1.10,2013-08-17 05:30:00,
2013-08-16 23:45:00,66.4,45.0,31.97,NW,326,14.0,16.0,47,0.00,,,0.00,weatherlink.com 1.10,2013-08-17 05:45:00,